STARLINK-32133 (60333 NORAD) Tracking and Keplerian Element Data

This shows tracking and keplerian element data for the satellite.

Feedback or suggestion? Click here.




ElementValue
Catalog60333
NameSTARLINK-32133
Epoch Orbit1106
Epoch Day286.33139347
Epoch Year2024
RAAN300.41
Inclination53.1619
Eccentricity0.0001319
Argument of Perigee90.6375
Mean Anonmoly269.4777
Mean Motion15.30194388
Decay Rate-5.605E-05
L11 60333U 24136E 24286.33139347 -.00005605 00000+0 -17728-3 0 9991
L22 60333 53.1619 300.4100 0001319 90.6375 269.4777 15.30194388 11066



Live tracking and technical data element details for STARLINK-32133 (NORAD 60333). STARLINK-32133 can be tracked NOW for your location showing map with azimuth and elevation plus other details from your city location.







IsCatalogInMostPopularTable: catalog: 60333, numindb: 8
Update: records affected: 1



GetName: 60333 STARLINK-32133

Hit Count: updated at: Wed, 04 Dec 2024 17:26:35 GMT